Skip Page Navigation
NASA JPL Caltech
NASA Logo - Jet Propulsion Laboratory + View the NASA Portal
+ Center for Near-Earth Object Studies
JPL Home Earth Solar System Stars & Galaxies Technology
JPL Solar System Dynamics
BODIES ORBITS EPHEMERIDES TOOLS PHYSICAL DATA DISCOVERY FAQ SITE MAP
IMPORTANT: The SSD Announcement email list is now available. Major changes are coming in the near future, including possible hostname and/or URL changes. To be notified of such changes, subscribe to this email list.

Please visit this page for more details.


JPL Small-Body Database Browser
Search: [ help ]  
390044 (2012 UA62)
Classification: Main-belt Asteroid          SPK-ID: 2390044
Ephemeris | Orbit Diagram | Orbital Elements | Mission Design | Physical Parameters | Discovery Circumstances | Close-Approach Data ]

[ show orbit diagram ]
Orbital Elements at Epoch 2458600.5 (2019-Apr-27.0) TDB
Reference: JPL 13 (heliocentric ecliptic J2000)
 Element Value Uncertainty (1-sigma)   Units 
e .06708654711645225 7.5293e-08  
a 3.058505263610798 7.2575e-08 au
q 2.853320706137656 2.0846e-07 au
i 6.978428457151892 7.5412e-06 deg
node 60.4428096410226 4.6589e-05 deg
peri 129.4020556201007 7.0099e-05 deg
M 300.1087311186737 5.9199e-05 deg
tp 2458925.529880961178
(2020-Mar-17.02988096)
0.00032877 TDB
period 1953.719788069262
5.35
6.954e-05
1.904e-07
d
yr
n .1842638858440213 6.5586e-09 deg/d
Q 3.263689821083942 7.7444e-08 au
  Orbit Determination Parameters
   # obs. used (total)      180  
   data-arc span      4110 days (11.25 yr)  
   first obs. used      2007-11-01  
   last obs. used      2019-02-01  
   planetary ephem.      DE431  
   SB-pert. ephem.      SB431-N16  
   condition code      0  
   norm. resid. RMS      .555  
   source      ORB  
   producer      Otto Matic  
   solution date      2019-Jul-14 14:54:07  

Additional Information
 Earth MOID = 1.85907 au 
 Jupiter MOID = 1.71229 au 
 T_jup = 3.220 
[ show covariance matrix ]

Ephemeris | Orbit Diagram | Orbital Elements | Mission Design | Physical Parameters | Discovery Circumstances | Close-Approach Data ]

Physical Parameter Table
Parameter Symbol Value Units Sigma Reference Notes
absolute magnitude H 16.0   n/a MPO427944  

390044 (2012 UA62)          Discovered 2007-Nov-01 by Spacewatch at Kitt Peak
Reference: Last Updated: 2014-03-21

[ show close-approach data ]
Alternate Designations
 2012 UA62 = 2007 VX265 = 2009 DW107 
Ephemeris | Orbit Diagram | Orbital Elements | Mission Design | Physical Parameters | Discovery Circumstances | Close-Approach Data ]
ABOUT SSD CREDITS/AWARDS PRIVACY/COPYRIGHT GLOSSARY LINKS
FirstGov 2020-Jan-23 23:40 UT
(server date/time)  
NASA Home Page
Site Manager:   Ryan S. Park
Webmaster  Alan B. Chamberlin